Olney-Noble, IL

1:36 AM CST on February 21, 2018 (GMT -0600)
Olney-Noble

Weather History for KOLY - April, 2013

Change the Weather History Date:

Tuesday, April 16, 2013

  Actual Average (KEVV) Record (KEVV)
Temperature  
Mean Temperature 60 °F -  
Max Temperature 66 °F 67 °F 90 °F (1967)
Min Temperature 53 °F 44 °F 28 °F (1962)
Degree Days  
Heating Degree Days 6    
Growing Degree Days 10 (Base 50)    
Moisture  
Dew Point 53 °F    
Average Humidity 91    
Maximum Humidity 100    
Minimum Humidity 73    
Precipitation  
Precipitation 0.06 in - - ()
Sea Level Pressure  
Sea Level Pressure 30.05 in    
Wind  
Wind Speed 7 mph (NNE)    
Max Wind Speed 14 mph    
Max Gust Speed 40 mph    
Visibility 9 miles    
Events Rain , Thunderstorm    
Averages and records for this station are not official NWS values.
T = Trace of Precipitation, MM = Missing Value Source: NWS Daily Summary

Daily Weather History Graph

Daily Weather History Graph

Search for Another Location

Airport or City:

Trip Planner

Search our weather history database for the weather conditions in past years. The results will help you decide how hot, cold, wet, or windy it might be!

Date:

Astronomy

Apr. 16, 2013 Rise Set
Actual Time 6:14 AM CDT 7:30 PM CDT
Civil Twilight 5:47 AM CDT 7:58 PM CDT
Nautical Twilight 5:14 AM CDT 8:31 PM CDT
Astronomical Twilight 4:39 AM CDT 9:06 PM CDT
Moon 10:34 AM CDT (4/16) 12:26 AM CDT (4/16)
Length of Visible Light 14h 11m
Length of Day
13h 16m
Waxing Crescent, 33% of the Moon is Illuminated
Apr 16
Waxing Crescent
Apr 18
First Quarter
Apr 25
Full
May 2
Last Quarter
May 9
New

Hourly Weather History & Observations

Time (CDT) Temp. Dew Point Humidity Pressure Visibility Wind Dir Wind Speed Gust Speed Precip Events Conditions
12:15 AM 62.6 °F 59.0 °F 88% 29.87 in 10.0 mi SE 5.8 mph - N/A   Overcast
12:35 AM 64.4 °F 59.0 °F 83% 29.88 in 10.0 mi SE 4.6 mph - N/A   Overcast
12:55 AM 64.4 °F 57.2 °F 77% 29.87 in 10.0 mi SSE 9.2 mph - N/A   Mostly Cloudy
1:15 AM 64.4 °F 57.2 °F 77% 29.87 in 10.0 mi South 6.9 mph - N/A   Scattered Clouds
1:35 AM 66.2 °F 57.2 °F 73% 29.87 in 10.0 mi South 9.2 mph - N/A   Clear
1:55 AM 66.2 °F 57.2 °F 73% 29.88 in 10.0 mi South 8.1 mph - N/A   Clear
2:15 AM 66.2 °F 57.2 °F 73% 29.89 in 10.0 mi South 5.8 mph - N/A   Mostly Cloudy
2:35 AM 66.2 °F 57.2 °F 73% 29.90 in 10.0 mi South 4.6 mph - N/A   Overcast
2:55 AM 66.2 °F 59.0 °F 78% 29.91 in 10.0 mi SSW 3.5 mph - N/A   Overcast
3:15 AM 64.4 °F 59.0 °F 83% 29.92 in 10.0 mi West 8.1 mph - N/A   Overcast
3:35 AM 60.8 °F 55.4 °F 82% 29.94 in 10.0 mi NW 11.5 mph - N/A   Overcast
3:55 AM 55.4 °F 53.6 °F 94% 29.95 in 10.0 mi NNW 9.2 mph - N/A   Overcast
4:15 AM 55.4 °F 51.8 °F 88% 29.97 in 10.0 mi NNW 13.8 mph - N/A   Overcast
4:35 AM 53.6 °F 51.8 °F 94% 29.97 in 10.0 mi North 10.4 mph - N/A Thunderstorm Overcast
4:55 AM 53.6 °F 51.8 °F 94% 30.00 in 10.0 mi North 6.9 mph - N/A   Overcast
5:15 AM 53.6 °F 51.8 °F 94% 30.01 in 10.0 mi NNW 8.1 mph - N/A   Overcast
5:35 AM 53.6 °F 51.8 °F 94% 30.02 in 10.0 mi North 4.6 mph - N/A   Overcast
5:55 AM 53.6 °F 50.0 °F 88% 30.04 in 7.0 mi NNE 4.6 mph 40.3 mph N/A Rain Rain
6:15 AM 53.6 °F 51.8 °F 94% 30.03 in 10.0 mi NE 4.6 mph - N/A Rain Light Rain
6:35 AM 53.6 °F 51.8 °F 94% 30.04 in 10.0 mi NE 3.5 mph - N/A Rain Light Rain
6:55 AM 53.6 °F 51.8 °F 94% 30.07 in 4.0 mi Calm Calm - 0.02 in Rain Heavy Rain
7:15 AM 53.6 °F 53.6 °F 100% 30.03 in 10.0 mi ENE 8.1 mph - 0.04 in Rain Light Rain
7:35 AM 53.6 °F 53.6 °F 100% 30.05 in 10.0 mi NE 3.5 mph - 0.04 in   Scattered Clouds
7:55 AM 55.4 °F 53.6 °F 94% 30.04 in 7.0 mi ENE 4.6 mph - N/A   Mostly Cloudy
8:15 AM 55.4 °F 55.4 °F 100% 30.06 in 7.0 mi Calm Calm - N/A   Mostly Cloudy
8:35 AM 57.2 °F 53.6 °F 88% 30.07 in 10.0 mi NNW 12.7 mph - N/A   Scattered Clouds
8:55 AM 57.2 °F 53.6 °F 88% 30.06 in 10.0 mi NNW 9.2 mph - N/A   Scattered Clouds
9:15 AM 57.2 °F 53.6 °F 88% 30.07 in 10.0 mi North 6.9 mph - N/A   Overcast
9:35 AM 55.4 °F 53.6 °F 94% 30.08 in 10.0 mi North 9.2 mph - N/A   Overcast
9:55 AM 55.4 °F 51.8 °F 88% 30.08 in 10.0 mi North 8.1 mph - N/A   Overcast
10:15 AM 55.4 °F 51.8 °F 88% 30.08 in 10.0 mi North 6.9 mph - N/A   Overcast
10:35 AM 55.4 °F 53.6 °F 94% 30.08 in 7.0 mi North 4.6 mph - N/A   Overcast
10:55 AM 55.4 °F 53.6 °F 94% 30.08 in 7.0 mi NE 5.8 mph - N/A   Overcast
11:15 AM 55.4 °F 53.6 °F 94% 30.08 in 7.0 mi NE 6.9 mph - N/A   Overcast
11:35 AM 55.4 °F 53.6 °F 94% 30.08 in 10.0 mi North 5.8 mph - N/A Thunderstorm Overcast
11:55 AM 55.4 °F 53.6 °F 94% 30.07 in 5.0 mi North 3.5 mph - N/A   Overcast
12:15 PM 55.4 °F 53.6 °F 94% 30.07 in 4.0 mi North 3.5 mph - N/A   Overcast
12:35 PM 55.4 °F 53.6 °F 94% 30.08 in 5.0 mi North 6.9 mph - N/A   Overcast
12:55 PM 55.4 °F 53.6 °F 94% 30.09 in 7.0 mi North 8.1 mph - N/A   Overcast
1:15 PM 55.4 °F 53.6 °F 94% 30.09 in 7.0 mi North 10.4 mph - N/A   Overcast
1:35 PM 53.6 °F 53.6 °F 100% 30.08 in 4.0 mi North 8.1 mph - N/A   Overcast
1:55 PM 53.6 °F 51.8 °F 94% 30.09 in 4.0 mi North 11.5 mph 17.3 mph N/A   Overcast
2:15 PM 53.6 °F 51.8 °F 94% 30.09 in 5.0 mi North 12.7 mph 19.6 mph N/A Thunderstorm Overcast
2:35 PM 53.6 °F 51.8 °F 94% 30.09 in 5.0 mi NNE 10.4 mph 18.4 mph N/A   Overcast
2:55 PM 53.6 °F 51.8 °F 94% 30.09 in 10.0 mi NNE 10.4 mph - N/A   Overcast
3:15 PM 55.4 °F 51.8 °F 88% 30.08 in 10.0 mi NNE 10.4 mph - N/A   Overcast
3:35 PM 55.4 °F 51.8 °F 88% 30.08 in 10.0 mi NNE 10.4 mph - N/A Thunderstorm Overcast
3:55 PM 57.2 °F 53.6 °F 88% 30.07 in 10.0 mi NE 8.1 mph - N/A   Overcast
4:15 PM 57.2 °F 53.6 °F 88% 30.07 in 10.0 mi NNE 9.2 mph - N/A   Overcast
4:35 PM 57.2 °F 53.6 °F 88% 30.07 in 10.0 mi NNE 8.1 mph - N/A   Overcast
4:55 PM 57.2 °F 53.6 °F 88% 30.08 in 10.0 mi North 5.8 mph - N/A   Overcast
5:15 PM 57.2 °F 53.6 °F 88% 30.08 in 10.0 mi NNE 9.2 mph - N/A   Overcast
5:35 PM 55.4 °F 53.6 °F 94% 30.09 in 10.0 mi North 9.2 mph - N/A   Overcast
5:55 PM 55.4 °F 53.6 °F 94% 30.08 in 10.0 mi North 6.9 mph - N/A   Overcast
6:15 PM 55.4 °F 51.8 °F 88% 30.08 in 10.0 mi NNE 8.1 mph - N/A   Overcast
6:35 PM 53.6 °F 51.8 °F 94% 30.09 in 10.0 mi NNE 9.2 mph - N/A   Overcast
6:55 PM 53.6 °F 51.8 °F 94% 30.10 in 10.0 mi NNE 5.8 mph - N/A   Overcast
7:15 PM 53.6 °F 51.8 °F 94% 30.10 in 10.0 mi North 6.9 mph - N/A   Overcast
7:35 PM 53.6 °F 51.8 °F 94% 30.09 in 10.0 mi NNE 9.2 mph - N/A Thunderstorm Overcast
7:55 PM 53.6 °F 51.8 °F 94% 30.11 in 10.0 mi North 8.1 mph - N/A Thunderstorm Thunderstorm
8:15 PM 53.6 °F 51.8 °F 94% 30.12 in 10.0 mi NNE 6.9 mph - N/A Thunderstorm Overcast
8:35 PM 53.6 °F 51.8 °F 94% 30.12 in 10.0 mi NNE 9.2 mph - N/A   Overcast
8:55 PM 53.6 °F 51.8 °F 94% 30.13 in 10.0 mi NE 6.9 mph - N/A   Mostly Cloudy
9:15 PM 53.6 °F 51.8 °F 94% 30.12 in 10.0 mi NNE 5.8 mph - N/A   Mostly Cloudy
9:35 PM 53.6 °F 51.8 °F 94% 30.12 in 10.0 mi ENE 5.8 mph - N/A Thunderstorm Overcast
9:55 PM 53.6 °F 51.8 °F 94% 30.13 in 10.0 mi North 5.8 mph - N/A   Overcast
10:15 PM 53.6 °F 51.8 °F 94% 30.13 in 7.0 mi North 6.9 mph - N/A Thunderstorm Overcast
10:35 PM 53.6 °F 51.8 °F 94% 30.12 in 7.0 mi NNE 10.4 mph 16.1 mph N/A Thunderstorm Overcast
10:55 PM 53.6 °F 51.8 °F 94% 30.13 in 7.0 mi NNE 8.1 mph - N/A   Overcast
11:15 PM 53.6 °F 51.8 °F 94% 30.11 in 10.0 mi NE 9.2 mph - N/A Thunderstorm Overcast
11:35 PM 53.6 °F 51.8 °F 94% 30.11 in 10.0 mi NE 8.1 mph - N/A Thunderstorm Overcast
11:55 PM 53.6 °F 51.8 °F 94% 30.12 in 10.0 mi North 8.1 mph - N/A Thunderstorm Overcast